Location: Donald C. Martin Observatory
(38.3885°N, 82.3916°W)
Time: 21:24:26
(UTC-04:00)

Cosmos 1484 Rocket - Visible Passes

Search period start: 01 April 2015 00:00
Search period end: 11 April 2015 00:00
Orbit: 511 x 570 km, 97.4° (Epoch: 31 March)

Date Brightness Start Highest point End Pass type
(mag) Time Alt. Az. Time Alt. Az. Time Alt. Az.
01 Apr 3.3 20:49:27 10° S 20:53:08 58° W 20:56:50 10° NNW visible
02 Apr 2.9 20:42:12 10° S 20:45:54 74° W 20:49:39 10° NNW visible
03 Apr 2.6 20:34:58 10° SSE 20:38:41 88° E 20:42:28 10° NNW visible
04 Apr 2.6 20:27:45 10° SSE 20:31:28 71° ENE 20:35:13 10° N visible
05 Apr 2.8 20:20:36 10° SSE 20:24:14 56° ENE 20:27:56 10° N visible
06 Apr 6.1 21:51:17 10° W 21:51:58 10° W 21:52:23 10° W visible
07 Apr 5.8 21:42:46 10° WSW 21:44:36 13° W 21:46:15 10° WNW visible
08 Apr 5.6 21:34:52 10° SW 21:37:16 16° W 21:39:32 10° NW visible
09 Apr 5.4 21:27:08 10° SW 21:29:55 19° W 21:32:38 10° NW visible
10 Apr 5.1 21:19:30 10° SSW 21:22:34 23° W 21:25:38 10° NW visible
